Regional Weather Roundup
Issued by NWS

Home | Current Version | Previous Version | Graphics & Text | Print | Product List | Glossary On
Versions: 1 2 3 4 5 6 7 8 9 10 11 12 13 14 15 16 17 18 19 20 21 22 23 24 25 26 27 28 29 30 31 32 33 34 35 36 37 38 39 40 41 42 43 44 45 46 47 48 49 50
000
ASUS44 KMEG 250010
RWRTN
TENNESSEE HOURLY STATE WEATHER ROUNDUP
NATIONAL WEATHER SERVICE MEMPHIS TN
700 PM CDT WED MAY 24 2017

TNZ002-004-019-021-049-052-054-088>092-250100-
WEST TENNESSEE

CITY           SKY/WX    TMP DP  RH WIND       PRES   REMARKS
MEMPHIS INTL   PTSUNNY   60  52  74 W8        29.61S
NWS MEMPHIS      N/A     62 N/A N/A MISG        N/A
JACKSON        SUNNY     63  49  60 NW10G22   29.57R
DYERSBURG        N/A    N/A N/A N/A MISG        N/A
COVINGTON      SUNNY     61  48  63 W8        29.58S
UNION CITY     PTSUNNY   61  52  72 W8G15     29.55R
BOLIVAR        SUNNY     63  48  59 W9G16     29.58R
PARIS          SUNNY     63  55  77 SW7       29.53S
HUNTINGDON     SUNNY     61  55  82 W6        29.54S
LEXINGTON      MOSUNNY   63  52  67 MISG      29.55S
SELMER         PTSUNNY   59  55  88 S8        29.56R
SAVANNAH       CLEAR     64  54  68 SW5       29.55S
$$

TNZ008-025-027-028-033-062-065-066-250100-
NORTH MIDDLE TENNESSEE

CITY           SKY/WX    TMP DP  RH WIND       PRES   REMARKS
NASHVILLE      PTCLDY    62  52  69 NW7       29.55R
PORTLAND       CLOUDY    59  54  82 W8        29.53R
CLARKSVILLE    CLOUDY    62  53  72 NE5       29.53R
SMYRNA         PTCLDY    63  53  70 NW8       29.55R
COOKEVILLE     MOCLDY    59  52  77 NW7       29.53R
GALLATIN       PTCLDY    61  52  72 VRB3      29.56R
CROSSVILLE     CLOUDY    55  49  80 NW14G22   29.55R
$$

TNZ061-075-076-078-094-096-097-250100-
SOUTH MIDDLE TENNESSEE

CITY           SKY/WX    TMP DP  RH WIND       PRES   REMARKS
FAYETTEVILLE   MOCLDY    64  52  63 W3        29.54S
TULLAHOMA      CLEAR     63  48  59 NW6       29.56R
WINCHESTER     PTCLDY    63  50  63 N6          N/A
COLUMBIA       PTCLDY    64  52  63 CALM      29.52R
SHELBYVILLE    MOCLDY    63  52  67 N6        29.54S
$$

TNZ017-018-042-046-047-250100-
NORTHEAST TENNESSEE

CITY           SKY/WX    TMP DP  RH WIND       PRES   REMARKS
TRI CITIES     MOCLDY    62  61  96 E3        29.46F
ELIZABETHTON   PTCLDY    63  61  94 CALM      29.48R
$$

TNZ012-013-036-069-073-074-250100-
CENTRAL EAST TENNESSEE

CITY           SKY/WX    TMP DP  RH WIND       PRES   REMARKS
KNOXVILLE      NOT AVBL
OAK RIDGE      CLOUDY    63  51  65 VRB6      29.51R
DOWNTOWN KNOXV CLOUDY    66  54  63 W12G18    29.50R
GATLINBURG     PTCLDY    66  54  63 W7        29.48R
MORRISTOWN     PTCLDY    66  55  68 W9G17     29.47R
JACKSBORO      CLOUDY    63  52  67 VRB6      29.52R
$$

TNZ083-085-099-250100-
SOUTHEAST TENNESSEE

CITY           SKY/WX    TMP DP  RH WIND       PRES   REMARKS
CHATTANOOGA    MOCLDY    66  51  58 NW7       29.54R
$$

SKY/WX REPORTED AS FAIR MEANS FEW OR NO CLOUDS BELOW
12 THOUSAND FEET.





USA.gov is the U.S. government's official web portal to all federal, state and local government web resources and services.